[[{"header":{"parameterUnit":"m.s-1","parameterCategory":1,"la1":30.2991,"la2":30.254,"lo1":-89.0895,"lo2":-89.0444,"dy":0.0017,"dx":0.0017,"nx":28,"ny":28,"refTime":"2024-10-04T09:00:00:Z","depth":0,"parameterNumber":2,"parameterNumberName":"U-component_of_WINDS"},"data":[0,0,0,0,0,0,0,0,0,0,0,0,0,0,0,0,0,0,0,0,0,0,0,0,0,0,0,0,0,0,0,0,0,0,0,0,0,0,0,0,0,0,0,0,0,0,0,0,0,0,0,0,0,0,0,0,0,0,-3.7008,-3.7009,0,-3.7053,-3.7054,-3.7054,-3.6948,-3.6944,-3.6941,-3.6938,-3.6986,-3.6991,-3.6995,0,0,0,0,0,0,0,0,0,0,0,0,0,-3.6833,-3.6837,-3.7008,-3.7009,-3.701,-3.7053,-3.7054,-3.7054,-3.6948,-3.6944,-3.694,-3.6936,-3.6985,-3.699,-3.6996,0,0,0,0,0,0,0,0,0,0,0,0,0,-3.6897,-3.6838,-3.7008,-3.6962,-3.6958,-3.7053,-3.7054,-3.7055,-3.6949,-3.6944,-3.6939,-3.6934,-3.6983,-3.699,-3.6996,-3.714,0,0,-3.7017,-3.702,0,0,0,0,0,0,0,0,-3.6893,-3.6903,-3.6968,-3.6965,-3.6961,-3.6989,-3.701,-3.7083,-3.695,-3.6953,-3.6937,-3.6932,-3.6992,-3.6997,-3.7017,-3.7142,-3.7144,-3.7017,-3.7022,-3.7024,-3.7026,0,0,0,0,0,0,0,-3.6889,-3.6901,-3.7026,-3.6969,-3.6965,-3.6939,-3.6943,-3.7023,-3.7,-3.6952,-3.6944,-3.6951,-3.6989,-3.7011,-3.7018,-3.7145,-3.7017,-3.7023,-3.7027,-3.703,-3.739,-3.7395,0,0,0,0,0,0,-3.689,-3.6898,-3.7025,-3.7028,-3.6914,-3.6947,-3.695,-3.6986,-3.6999,-3.6996,-3.6955,-3.6946,-3.7002,-3.701,-3.7019,-3.7188,-3.7024,-3.7031,-3.7034,-3.7384,-3.7391,-3.7397,0,0,0,0,0,0,-3.6887,-3.6902,-3.7023,-3.6961,-3.6974,-3.6955,-3.6995,-3.6989,-3.7011,-3.7001,-3.6997,-3.6982,-3.6998,-3.7009,-3.711,-3.7189,-3.7034,-3.704,-3.7378,-3.7387,-3.7394,-3.7528,0,0,0,0,0,0,-3.6882,-3.6902,-3.6956,-3.6963,-3.6978,-3.7114,-3.7,-3.6994,-3.7023,-3.7011,-3.7025,-3.7023,-3.6995,-3.7101,-3.7117,-3.7195,-3.7045,-3.7371,-3.7382,-3.7392,-3.7517,-3.754,-3.756,0,0,0,0,0,-3.6876,-3.6992,-3.6959,-3.6975,-3.7045,-3.7118,-3.7127,-3.7092,-3.7029,-3.7084,-3.7077,-3.7022,-3.7177,-3.7112,-3.7129,-3.7211,-3.7366,-3.7379,-3.7391,-3.7507,-3.7536,-3.756,0,0,0,0,0,0,-3.6996,-3.6992,-3.6956,-3.7077,-3.7099,-3.71,-3.7168,-3.7123,-3.7164,-3.7151,-3.7106,-3.7111,-3.7221,-3.7225,-3.7153,-3.735,-3.7261,-3.7277,-3.7344,-3.737,-3.7392,-3.7389,-3.7051,0,0,0,0,0,-3.7037,-3.7096,-3.709,-3.7198,-3.721,-3.7187,-3.7218,-3.7189,-3.721,-3.7219,-3.722,-3.7244,-3.7297,-3.7334,-3.7382,-3.7516,-3.7519,-3.7581,-3.7602,-3.762,-3.7636,-3.7708,-3.7735,-3.7438,-3.7438,-3.7438,0,0,-3.7122,-3.7127,-3.7167,-3.7222,-3.7235,-3.7299,-3.7196,-3.7267,-3.7314,-3.723,-3.7326,-3.7327,-3.735,-3.7469,-3.7521,-3.7476,-3.7718,-3.7636,-3.765,-3.7656,-3.7723,-3.7752,-3.7777,-3.7447,-3.7445,-3.7444,0,0,-3.7308,-3.7318,-3.7409,-3.7424,-3.7445,-3.7429,-3.7451,-3.7459,-3.7457,-3.7551,-3.749,-3.7545,-3.7638,-3.7658,-3.768,-3.7873,-3.7825,-3.789,-3.8004,-3.8075,-3.8098,-3.8119,-3.819,-3.8215,-3.7905,-3.7905,-3.7906,0,-3.7412,-3.7504,-3.7462,-3.7538,-3.7564,-3.7489,-3.7582,-3.7599,-3.7635,-3.7656,-3.7604,-3.772,-3.773,-3.7852,-3.7899,-3.7919,-3.7944,-3.7889,-3.8098,-3.8118,-3.8137,-3.8204,-3.823,-3.7913,-3.7912,-3.7912,-3.7911,0,-3.763,-3.7695,-3.7766,-3.7803,-3.7837,-3.7921,-3.7892,-3.7932,-3.7899,-3.7889,-3.7987,-3.7996,-3.8046,-3.8072,-3.8041,-3.819,-3.8162,-3.8105,-3.8015,-3.8174,-3.8236,-3.8261,-3.7925,-3.7922,-3.792,-3.7918,0,0,-3.7896,-3.7907,-3.7934,-3.795,-3.7967,-3.8017,-3.8097,-3.8145,-3.8181,-3.8208,-3.8275,-3.8355,-3.8303,-3.8328,-3.8299,-3.8361,-3.8515,-3.8296,-3.8296,-3.8338,-3.8681,-3.8726,-3.8756,-3.8482,-3.8486,-3.849,-3.868,0,-3.8082,-3.822,-3.8184,-3.8322,-3.8382,-3.8311,-3.8381,-3.84,-3.8392,-3.8442,-3.8433,-3.8492,-3.8417,-3.8432,-3.849,-3.8484,-3.8584,-3.8469,-3.8546,-3.8549,-3.8545,-3.8788,-3.8835,-3.9014,-3.8704,-3.8708,-3.8711,0,-3.8318,-3.8354,-3.8497,-3.8505,-3.8528,-3.8592,-3.8633,-3.8682,-3.8702,-3.8691,-3.8719,-3.8677,-3.8758,-3.8665,-3.8776,-3.8699,-3.8728,-3.873,-3.8736,-3.8744,-3.8641,-3.8804,-3.9069,-3.9097,-3.8748,-3.8745,-3.8742,0,-3.85,-3.8584,-3.868,-3.8696,-3.8706,-3.8753,-3.876,-3.8774,-3.8805,-3.8841,-3.8861,-3.8906,-3.8931,-3.8967,-3.8939,-3.8874,-3.9055,-3.896,-3.9051,-3.9052,-3.9094,-3.9092,-3.937,-3.9109,-3.9109,-3.9109,-3.9108,0,-3.8713,-3.8804,-3.8762,-3.8822,-3.8922,-3.888,-3.898,-3.8979,-3.8992,-3.9051,-3.8992,-3.9049,-3.9007,-3.9061,-3.9039,-3.9135,-3.9147,-3.9142,-3.9136,-3.9149,-3.915,-3.9169,-3.9156,-3.9116,-3.9114,-3.9113,-3.9111,0,-3.8934,-3.8909,-3.901,-3.9012,-3.9014,-3.9088,-3.9089,-3.9145,-3.9132,-3.9208,-3.9223,-3.9203,-3.9263,-3.9238,-3.9301,-3.9287,-3.9411,-3.9387,-3.9404,-3.9399,-3.9492,-3.9484,-3.9793,-3.9832,-3.9545,-3.9547,-3.955,0,-3.9072,-3.9141,-3.9149,-3.9184,-3.9194,-3.9251,-3.9282,-3.9243,-3.9277,-3.9305,-3.9358,-3.9412,-3.9454,-3.9553,-3.9546,-3.9594,-3.9572,-3.9677,-3.9579,-3.959,-3.9576,-3.9573,-3.958,-3.9697,-3.9701,-3.9703,-3.9706,0,-3.9321,-3.9306,-3.9352,-3.9395,-3.9433,-3.9465,-3.9492,-3.9524,-3.9485,-3.9528,-3.9588,-3.962,-3.9684,-3.974,-3.9782,-3.979,-3.9743,-3.9736,-3.976,-3.9775,-3.9783,-3.9782,-3.946,-3.973,-3.9727,-3.9726,-3.9724,-3.9723,-3.9507,-3.9564,-3.9579,-3.9633,-3.9648,-3.9675,-3.9728,-3.9721,-3.977,-3.9818,-3.9792,-3.9862,-3.988,-3.9932,-3.9947,-4.0002,-3.9961,-3.9995,-4.0004,-4.0014,-4.0027,-3.9773,-4.0009,-4.0008,-4.0008,-4.0007,-4.0007,0,-3.9754,-3.976,-3.981,-3.9849,-3.9891,-3.984,-3.9867,-3.9907,-3.9969,-3.9989,-4.0031,-4.0101,-4.0154,-4.015,-4.0199,-4.0244,-4.0224,-4.0259,-4.0256,-4.0259,-4.006,-4.0035,-4.0274,-4.0274,-4.0274,-4.0274,-4.0274,-4.0274,-3.9888,-3.9984,-3.997,-4.0072,-4.0077,-4.0145,-4.0165,-4.0189,-4.0205,-4.0285,-4.0328,-4.0324,-4.0335,-4.0385,-4.0432,-4.0429,-4.0451,-4.0495,-4.0484,-4.0299,-4.0273,-4.0248,-4.0224,-4.0499,-4.0499,-4.0679,-4.0681,-4.0682]},{"header":{"parameterUnit":"m.s-1","parameterCategory":1,"la1":30.2991,"la2":30.254,"lo1":-89.0895,"lo2":-89.0444,"dy":0.0017,"dx":0.0017,"nx":28,"ny":28,"refTime":"2024-10-04T09:00:00:Z","depth":0,"parameterNumber":3,"parameterNumberName":"V-component_of_WINDS"},"data":[0,0,0,0,0,0,0,0,0,0,0,0,0,0,0,0,0,0,0,0,0,0,0,0,0,0,0,0,0,0,0,0,0,0,0,0,0,0,0,0,0,0,0,0,0,0,0,0,0,0,0,0,0,0,0,0,0,0,-4.5205,-4.5205,0,-4.5219,-4.5219,-4.5219,-4.515,-4.5148,-4.5146,-4.5144,-4.5158,-4.516,-4.5162,0,0,0,0,0,0,0,0,0,0,0,0,0,-4.5118,-4.512,-4.5205,-4.5205,-4.5206,-4.5219,-4.5219,-4.5219,-4.515,-4.5148,-4.5146,-4.5143,-4.5157,-4.5159,-4.5162,0,0,0,0,0,0,0,0,0,0,0,0,0,-4.5146,-4.5121,-4.5205,-4.5173,-4.517,-4.5219,-4.5219,-4.5219,-4.5151,-4.5148,-4.5145,-4.5142,-4.5156,-4.5159,-4.5162,-4.5242,0,0,-4.5172,-4.5174,0,0,0,0,0,0,0,0,-4.5145,-4.515,-4.5178,-4.5175,-4.5172,-4.518,-4.5193,-4.5227,-4.5152,-4.5158,-4.5144,-4.5141,-4.5167,-4.5169,-4.5178,-4.5243,-4.5243,-4.5173,-4.5175,-4.5176,-4.5177,0,0,0,0,0,0,0,-4.5143,-4.5149,-4.5211,-4.5178,-4.5175,-4.5157,-4.5158,-4.5199,-4.5179,-4.5157,-4.5153,-4.5155,-4.5165,-4.5175,-4.5178,-4.5244,-4.5173,-4.5176,-4.5178,-4.5179,-4.5372,-4.5375,0,0,0,0,0,0,-4.5146,-4.5148,-4.521,-4.5211,-4.5151,-4.5161,-4.5162,-4.518,-4.5179,-4.5176,-4.5158,-4.5152,-4.5171,-4.5174,-4.5178,-4.527,-4.5176,-4.5179,-4.5181,-4.5369,-4.5372,-4.5376,0,0,0,0,0,0,-4.5144,-4.5152,-4.521,-4.5178,-4.5184,-4.5166,-4.5187,-4.5182,-4.5192,-4.5179,-4.5175,-4.5172,-4.5169,-4.5174,-4.5226,-4.527,-4.5181,-4.5184,-4.5365,-4.537,-4.5374,-4.5456,0,0,0,0,0,0,-4.5142,-4.5152,-4.5183,-4.5179,-4.5186,-4.5258,-4.519,-4.5185,-4.5198,-4.5191,-4.5191,-4.5188,-4.5167,-4.5222,-4.523,-4.5273,-4.5186,-4.5361,-4.5367,-4.5373,-4.5449,-4.5463,-4.5474,0,0,0,0,0,-4.5139,-4.5205,-4.5185,-4.5192,-4.5224,-4.5261,-4.5265,-4.5239,-4.5202,-4.5232,-4.5223,-4.5188,-4.5264,-4.5228,-4.5236,-4.5281,-4.5358,-4.5365,-4.5372,-4.5443,-4.546,-4.5474,0,0,0,0,0,0,-4.5215,-4.5205,-4.5181,-4.5249,-4.5256,-4.5249,-4.5287,-4.5258,-4.5276,-4.5268,-4.5236,-4.5236,-4.5294,-4.5293,-4.5253,-4.5357,-4.5304,-4.5313,-4.5356,-4.5371,-4.5384,-4.5383,-4.5189,0,0,0,0,0,-4.524,-4.5271,-4.526,-4.532,-4.5325,-4.5305,-4.5321,-4.53,-4.5306,-4.5309,-4.5304,-4.5311,-4.5336,-4.5354,-4.5376,-4.5448,-4.5447,-4.5483,-4.5496,-4.5506,-4.5514,-4.555,-4.5566,-4.5399,-4.5399,-4.5399,0,0,-4.5291,-4.5289,-4.5311,-4.5335,-4.5339,-4.5371,-4.5309,-4.5346,-4.5369,-4.5315,-4.5364,-4.536,-4.5366,-4.5428,-4.5455,-4.5429,-4.556,-4.5515,-4.5524,-4.5526,-4.5559,-4.5575,-4.5589,-4.5404,-4.5403,-4.5402,0,0,-4.54,-4.5403,-4.5452,-4.5456,-4.5462,-4.5448,-4.546,-4.5457,-4.5452,-4.5501,-4.546,-4.5487,-4.5532,-4.5537,-4.5546,-4.5655,-4.5623,-4.5663,-4.5729,-4.5764,-4.5777,-4.5789,-4.5827,-4.5841,-4.5671,-4.5671,-4.5672,0,-4.5463,-4.551,-4.5481,-4.552,-4.5532,-4.5484,-4.5533,-4.5538,-4.5551,-4.556,-4.553,-4.5583,-4.5584,-4.5646,-4.5672,-4.5681,-4.5693,-4.5663,-4.5778,-4.5789,-4.5799,-4.5835,-4.5849,-4.5676,-4.5676,-4.5675,-4.5675,0,-4.5586,-4.5619,-4.5659,-4.5671,-4.5687,-4.5731,-4.5708,-4.5728,-4.5705,-4.5694,-4.5743,-4.5742,-4.5763,-4.5776,-4.5755,-4.5835,-4.5818,-4.5784,-4.573,-4.5821,-4.5853,-4.5867,-4.5683,-4.5681,-4.568,-4.5679,0,0,-4.5745,-4.574,-4.5755,-4.5759,-4.576,-4.5785,-4.5826,-4.5846,-4.5863,-4.5873,-4.5906,-4.5944,-4.5911,-4.5921,-4.59,-4.5931,-4.6016,-4.5893,-4.5892,-4.5915,-4.6102,-4.6127,-4.6143,-4.5995,-4.5997,-4.5999,-4.6101,0,-4.5851,-4.5921,-4.5895,-4.5967,-4.5996,-4.595,-4.5985,-4.599,-4.598,-4.6003,-4.5992,-4.6019,-4.5975,-4.5981,-4.601,-4.6,-4.6053,-4.5992,-4.6024,-4.6026,-4.6024,-4.616,-4.6188,-4.6284,-4.6113,-4.6116,-4.6117,0,-4.5984,-4.5998,-4.6073,-4.6067,-4.6079,-4.6111,-4.6126,-4.6149,-4.6152,-4.6143,-4.6153,-4.6125,-4.6164,-4.6111,-4.6163,-4.6122,-4.6134,-4.6131,-4.6134,-4.6135,-4.6077,-4.6165,-4.6314,-4.6328,-4.6137,-4.6136,-4.6134,0,-4.6091,-4.6129,-4.6177,-4.6183,-4.6178,-4.6202,-4.6201,-4.6201,-4.6214,-4.6227,-4.6235,-4.6253,-4.6262,-4.6276,-4.6253,-4.6217,-4.6308,-4.6254,-4.6301,-4.6302,-4.6322,-4.6321,-4.6474,-4.6331,-4.6331,-4.6331,-4.633,0,-4.6211,-4.6258,-4.6225,-4.6255,-4.6306,-4.6275,-4.6326,-4.632,-4.632,-4.6348,-4.6309,-4.6336,-4.6304,-4.6327,-4.6309,-4.6354,-4.6359,-4.6352,-4.6347,-4.6355,-4.6356,-4.6362,-4.6355,-4.6335,-4.6334,-4.6333,-4.6332,0,-4.6339,-4.6319,-4.6369,-4.6359,-4.6358,-4.6396,-4.6388,-4.6414,-4.6401,-4.6437,-4.6443,-4.6423,-4.6448,-4.6426,-4.6451,-4.6438,-4.6499,-4.6484,-4.6497,-4.6493,-4.6541,-4.6537,-4.6703,-4.6722,-4.6568,-4.6569,-4.6571,0,-4.6417,-4.6452,-4.6446,-4.6461,-4.6462,-4.6488,-4.65,-4.6471,-4.6485,-4.6491,-4.6517,-4.6538,-4.6554,-4.6596,-4.6584,-4.6602,-4.6587,-4.6644,-4.6589,-4.6596,-4.6586,-4.6584,-4.6587,-4.6655,-4.6657,-4.6658,-4.6659,0,-4.6557,-4.6545,-4.6564,-4.658,-4.6595,-4.6606,-4.6614,-4.6629,-4.6599,-4.6617,-4.6641,-4.6654,-4.6678,-4.6699,-4.6713,-4.6712,-4.6681,-4.6677,-4.6688,-4.6697,-4.6703,-4.6699,-4.6527,-4.6673,-4.6672,-4.6671,-4.667,-4.6669,-4.6662,-4.669,-4.6689,-4.6711,-4.6714,-4.6722,-4.6746,-4.6735,-4.6755,-4.6772,-4.6754,-4.6784,-4.6784,-4.6799,-4.6802,-4.6824,-4.68,-4.6818,-4.6822,-4.6826,-4.6833,-4.67,-4.6827,-4.6826,-4.6826,-4.6826,-4.6825,0,-4.6799,-4.6796,-4.6816,-4.6828,-4.6845,-4.6813,-4.682,-4.6836,-4.6863,-4.6866,-4.6882,-4.691,-4.693,-4.6919,-4.6936,-4.6956,-4.6942,-4.6962,-4.6959,-4.6959,-4.6854,-4.6841,-4.6972,-4.6972,-4.6972,-4.6972,-4.6972,-4.6972,-4.6872,-4.6917,-4.6904,-4.695,-4.6946,-4.6974,-4.6981,-4.6987,-4.6989,-4.7022,-4.7038,-4.703,-4.7027,-4.7044,-4.7061,-4.7057,-4.7064,-4.7089,-4.708,-4.6981,-4.6967,-4.6953,-4.6941,-4.7091,-4.7091,-4.7183,-4.7184,-4.7185]}]]